| time (UTC) | temp F | wind direction | speed MPH | gust MPH | rain 1hr in | rain 24hr in | rain mn in | humidity % | barometer mb |
| 20260906014006 | 67 | 153 | 0.0 | 0.0 | 0.00 | 0.00 | 0.00 | 70 | 1005.3 |
| 20260906013007 | 67 | 153 | 0.0 | 0.0 | 0.00 | 0.00 | 0.00 | 70 | 1005.1 |
| 20260906012006 | 67 | 153 | 0.0 | 0.0 | 0.00 | 0.00 | 0.00 | 71 | 1005.1 |
| 20260906011007 | 67 | 153 | 0.0 | 0.0 | 0.00 | 0.00 | 0.00 | 67 | 1005.1 |
| 20260906010011 | 66 | 153 | 0.0 | 0.0 | 0.00 | 0.00 | 0.00 | 70 | 1004.9 |
| 20260906005008 | 67 | 153 | 0.0 | 0.0 | 0.00 | 0.00 | 0.00 | 70 | 1004.8 |
| 20260906003012 | 67 | 153 | 0.0 | 0.0 | 0.00 | 0.00 | 0.00 | 70 | 1005.1 |
| 20260906001006 | 67 | 153 | 0.0 | 0.0 | 0.00 | 0.00 | 0.00 | 70 | 1005.1 |
| 20260906000005 | 67 | 153 | 0.0 | 0.0 | 0.00 | 0.00 | 0.00 | 70 | 1004.7 |
| 20260905235006 | 67 | 153 | 0.0 | 0.0 | 0.00 | 0.00 | 0.00 | 71 | 1004.6 |
| 20260905234007 | 68 | 152 | 0.0 | 0.0 | 0.00 | 0.00 | 0.00 | 70 | 1004.5 |
| 20260905233005 | 68 | 152 | 0.0 | 0.0 | 0.00 | 0.00 | 0.00 | 69 | 1004.7 |
| 20260905232005 | 68 | 151 | 0.0 | 1.0 | 0.00 | 0.00 | 0.00 | 70 | 1004.7 |
| 20260905230008 | 69 | 169 | 0.0 | 0.0 | 0.00 | 0.00 | 0.00 | 68 | 1004.4 |
| 20260905225006 | 70 | 170 | 0.0 | 1.0 | 0.00 | 0.00 | 0.00 | 58 | 1004.2 |
| 20260905224006 | 71 | 162 | 0.0 | 2.0 | 0.00 | 0.00 | 0.00 | 54 | 1004.1 |
| 20260905223006 | 71 | 158 | 0.0 | 2.0 | 0.00 | 0.00 | 0.00 | 52 | 1004.1 |
| 20260905222005 | 71 | 165 | 0.0 | 1.0 | 0.00 | 0.00 | 0.00 | 53 | 1004.1 |
| 20260905221005 | 71 | 165 | 0.0 | 0.0 | 0.00 | 0.00 | 0.00 | 52 | 1003.9 |
| 20260905220008 | 71 | 165 | 0.0 | 0.0 | 0.00 | 0.00 | 0.00 | 51 | 1003.8 |
| 20260905215005 | 71 | 165 | 0.0 | 1.0 | 0.00 | 0.00 | 0.00 | 51 | 1003.7 |
| 20260905214006 | 71 | 159 | 0.0 | 1.0 | 0.00 | 0.00 | 0.00 | 53 | 1003.7 |
| 20260905213005 | 71 | 169 | 0.0 | 0.0 | 0.00 | 0.00 | 0.00 | 52 | 1003.5 |
| 20260905212005 | 71 | 170 | 0.0 | 1.0 | 0.00 | 0.00 | 0.00 | 51 | 1003.2 |
| 20260905211006 | 70 | 167 | 0.0 | 0.0 | 0.00 | 0.00 | 0.00 | 53 | 1003.4 |
| 20260905210007 | 70 | 167 | 0.0 | 2.0 | 0.00 | 0.00 | 0.00 | 53 | 1003.2 |
| 20260905204005 | 72 | 171 | 0.0 | 1.0 | 0.00 | 0.00 | 0.00 | 47 | 1003.0 |
| 20260905203005 | 72 | 167 | 0.0 | 0.0 | 0.00 | 0.00 | 0.00 | 48 | 1003.0 |
| 20260905202006 | 72 | 167 | 0.0 | 1.0 | 0.00 | 0.00 | 0.00 | 46 | 1003.0 |
| 20260905201006 | 72 | 166 | 0.0 | 0.0 | 0.00 | 0.00 | 0.00 | 48 | 1003.0 |
| 20260905200005 | 73 | 158 | 0.0 | 0.0 | 0.00 | 0.00 | 0.00 | 45 | 1002.7 |
| 20260905195005 | 74 | 157 | 0.0 | 0.0 | 0.00 | 0.00 | 0.00 | 44 | 1002.4 |
| 20260905194005 | 74 | 162 | 0.0 | 5.0 | 0.00 | 0.00 | 0.00 | 43 | 1002.4 |
| 20260905193007 | 74 | 156 | 1.0 | 2.0 | 0.00 | 0.00 | 0.00 | 43 | 1002.2 |
| 20260905192006 | 75 | 152 | 1.0 | 3.0 | 0.00 | 0.00 | 0.00 | 43 | 1002.0 |
| 20260905191005 | 75 | 80 | 3.0 | 6.0 | 0.00 | 0.00 | 0.00 | 42 | 1002.0 |
| 20260905190006 | 76 | 127 | 2.0 | 3.0 | 0.00 | 0.00 | 0.00 | 41 | 1001.7 |
| 20260905185006 | 76 | 64 | 2.0 | 5.0 | 0.00 | 0.00 | 0.00 | 40 | 1001.7 |
| 20260905184006 | 77 | 81 | 2.0 | 7.0 | 0.00 | 0.00 | 0.00 | 40 | 1001.7 |
| 20260905183006 | 78 | 90 | 3.0 | 8.0 | 0.00 | 0.00 | 0.00 | 39 | 1001.4 |
| 20260905182005 | 78 | 120 | 2.0 | 9.0 | 0.00 | 0.00 | 0.00 | 38 | 1001.4 |
| 20260905181005 | 79 | 39 | 3.0 | 9.0 | 0.00 | 0.00 | 0.00 | 38 | 1001.0 |
| 20260905180006 | 79 | 39 | 4.0 | 14.0 | 0.00 | 0.00 | 0.00 | 37 | 1001.0 |
| 20260905175006 | 80 | 52 | 5.0 | 9.0 | 0.00 | 0.00 | 0.00 | 38 | 1000.7 |
| 20260905173005 | 81 | 61 | 6.0 | 13.0 | 0.00 | 0.00 | 0.00 | 37 | 1000.3 |
| 20260905172005 | 82 | 41 | 6.0 | 13.0 | 0.00 | 0.00 | 0.00 | 38 | 1000.3 |
| 20260905171005 | 82 | 62 | 5.0 | 10.0 | 0.00 | 0.00 | 0.00 | 37 | 1000.0 |
| 20260905170006 | 83 | 74 | 9.0 | 15.0 | 0.00 | 0.00 | 0.00 | 36 | 999.8 |
| 20260905165005 | 84 | 49 | 6.0 | 13.0 | 0.00 | 0.00 | 0.00 | 35 | 999.7 |
| 20260905164005 | 84 | 43 | 5.0 | 9.0 | 0.00 | 0.00 | 0.00 | 35 | 999.3 |
| 20260905163005 | 84 | 63 | 3.0 | 17.0 | 0.00 | 0.00 | 0.00 | 35 | 999.3 |
| 20260905162005 | 85 | 28 | 7.0 | 14.0 | 0.00 | 0.00 | 0.00 | 34 | 999.2 |
| 20260905161005 | 85 | 32 | 8.0 | 15.0 | 0.00 | 0.00 | 0.00 | 34 | 999.0 |
| 20260905160007 | 86 | 38 | 9.0 | 15.0 | 0.00 | 0.00 | 0.00 | 33 | 999.0 |
| 20260905154006 | 87 | 58 | 9.0 | 15.0 | 0.00 | 0.00 | 0.00 | 33 | 998.3 |
| 20260905151005 | 87 | 83 | 7.0 | 13.0 | 0.00 | 0.00 | 0.00 | 37 | 998.2 |
| 20260905150006 | 87 | 54 | 7.0 | 12.0 | 0.00 | 0.00 | 0.00 | 37 | 998.3 |
| 20260905144006 | 89 | 27 | 9.0 | 16.0 | 0.00 | 0.00 | 0.00 | 37 | 997.6 |
| 20260905143005 | 90 | 49 | 7.0 | 17.0 | 0.00 | 0.00 | 0.00 | 37 | 997.6 |
| 20260905142004 | 90 | 85 | 6.0 | 10.0 | 0.00 | 0.00 | 0.00 | 37 | 997.7 |
| 20260905141006 | 90 | 45 | 7.0 | 16.0 | 0.00 | 0.00 | 0.00 | 36 | 997.8 |
| 20260905140006 | 90 | 18 | 6.0 | 16.0 | 0.00 | 0.00 | 0.00 | 36 | 997.6 |
| 20260905135004 | 90 | 43 | 6.0 | 16.0 | 0.00 | 0.00 | 0.00 | 36 | 997.8 |
| 20260905134005 | 90 | 12 | 12.0 | 20.0 | 0.00 | 0.00 | 0.00 | 36 | 997.9 |
| 20260905133005 | 91 | 33 | 9.0 | 15.0 | 0.00 | 0.00 | 0.00 | 35 | 997.8 |
| 20260905132004 | 92 | 43 | 6.0 | 15.0 | 0.00 | 0.00 | 0.00 | 34 | 997.8 |
| 20260905131004 | 94 | 45 | 4.0 | 13.0 | 0.00 | 0.00 | 0.00 | 34 | 997.5 |
| 20260905130006 | 94 | 280 | 3.0 | 9.0 | 0.00 | 0.00 | 0.00 | 32 | 997.6 |
| 20260905124007 | 96 | 339 | 5.0 | 9.0 | 0.00 | 0.00 | 0.00 | 31 | 997.9 |
| 20260905123005 | 96 | 128 | 2.0 | 9.0 | 0.00 | 0.00 | 0.00 | 29 | 997.6 |
| 20260905122005 | 96 | 180 | 2.0 | 8.0 | 0.00 | 0.00 | 0.00 | 29 | 997.6 |
| 20260905121005 | 95 | 125 | 3.0 | 6.0 | 0.00 | 0.00 | 0.00 | 30 | 997.6 |
| 20260905120006 | 97 | 120 | 3.0 | 6.0 | 0.00 | 0.00 | 0.00 | 28 | 998.0 |
| 20260905115006 | 96 | 51 | 4.0 | 10.0 | 0.00 | 0.00 | 0.00 | 28 | 998.0 |
| 20260905114006 | 97 | 207 | 3.0 | 6.0 | 0.00 | 0.00 | 0.00 | 27 | 998.0 |
| 20260905113007 | 97 | 197 | 3.0 | 6.0 | 0.00 | 0.00 | 0.00 | 28 | 998.0 |
| 20260905112008 | 95 | 154 | 3.0 | 5.0 | 0.00 | 0.00 | 0.00 | 29 | 998.0 |
| 20260905110007 | 96 | 232 | 3.0 | 6.0 | 0.00 | 0.00 | 0.00 | 29 | 998.0 |
| 20260905105006 | 95 | 149 | 1.0 | 8.0 | 0.00 | 0.00 | 0.00 | 31 | 998.0 |
| 20260905104006 | 96 | 69 | 5.0 | 8.0 | 0.00 | 0.00 | 0.00 | 30 | 998.0 |
| 20260905103006 | 95 | 137 | 1.0 | 8.0 | 0.00 | 0.00 | 0.00 | 30 | 998.1 |
| 20260905102005 | 94 | 181 | 1.0 | 6.0 | 0.00 | 0.00 | 0.00 | 31 | 998.2 |
| 20260905100006 | 94 | 14 | 2.0 | 5.0 | 0.00 | 0.00 | 0.00 | 30 | 998.2 |
| 20260905095010 | 93 | 133 | 3.0 | 7.0 | 0.00 | 0.00 | 0.00 | 30 | 998.0 |
| 20260905093006 | 92 | 319 | 1.0 | 3.0 | 0.00 | 0.00 | 0.00 | 33 | 998.3 |
| 20260905092006 | 92 | 163 | 1.0 | 5.0 | 0.00 | 0.00 | 0.00 | 31 | 998.3 |
| 20260905090008 | 92 | 165 | 2.0 | 7.0 | 0.00 | 0.00 | 0.00 | 31 | 998.5 |
| 20260905085006 | 91 | 181 | 2.0 | 5.0 | 0.00 | 0.00 | 0.00 | 32 | 998.3 |
| 20260905084007 | 91 | 168 | 0.0 | 3.0 | 0.00 | 0.00 | 0.00 | 33 | 998.3 |
| 20260905083006 | 89 | 198 | 2.0 | 3.0 | 0.00 | 0.00 | 0.00 | 34 | 998.3 |
| 20260905082006 | 88 | 168 | 1.0 | 5.0 | 0.00 | 0.00 | 0.00 | 36 | 998.3 |
| 20260905080006 | 87 | 204 | 4.0 | 6.0 | 0.00 | 0.00 | 0.00 | 37 | 998.5 |
| 20260905075006 | 86 | 204 | 2.0 | 3.0 | 0.00 | 0.00 | 0.00 | 37 | 998.3 |
| 20260905074006 | 85 | 166 | 0.0 | 2.0 | 0.00 | 0.00 | 0.00 | 38 | 998.2 |
| 20260905073006 | 84 | 160 | 0.0 | 3.0 | 0.00 | 0.00 | 0.00 | 40 | 998.0 |
| 20260905072006 | 83 | 170 | 2.0 | 3.0 | 0.00 | 0.00 | 0.00 | 43 | 998.0 |
| 20260905070007 | 79 | 175 | 2.0 | 5.0 | 0.00 | 0.00 | 0.00 | 48 | 998.0 |
| 20260905065006 | 77 | 168 | 2.0 | 5.0 | 0.00 | 0.00 | 0.00 | 51 | 998.0 |
| 20260905064007 | 76 | 167 | 2.0 | 3.0 | 0.00 | 0.00 | 0.00 | 53 | 997.7 |
| 20260905063005 | 74 | 174 | 3.0 | 3.0 | 0.00 | 0.00 | 0.00 | 57 | 998.0 |
| 20260905062005 | 73 | 164 | 1.0 | 2.0 | 0.00 | 0.00 | 0.00 | 57 | 997.6 |
| 20260905061006 | 73 | 167 | 1.0 | 2.0 | 0.00 | 0.00 | 0.00 | 56 | 997.9 |
| 20260905060008 | 73 | 159 | 1.0 | 1.0 | 0.00 | 0.00 | 0.00 | 56 | 997.8 |
| 20260905055006 | 69 | 158 | 0.0 | 0.0 | 0.00 | 0.00 | 0.00 | 62 | 997.8 |
| 20260905054006 | 68 | 149 | 0.0 | 0.0 | 0.00 | 0.00 | 0.00 | 66 | 998.0 |
| 20260905053006 | 67 | 153 | 0.0 | 0.0 | 0.00 | 0.00 | 0.00 | 70 | 997.6 |
| 20260905052005 | 64 | 153 | 0.0 | 0.0 | 0.00 | 0.00 | 0.00 | 74 | 997.7 |
| 20260905051031 | 60 | 152 | 0.0 | 0.0 | 0.00 | 0.00 | 0.00 | 80 | 997.7 |
| 20260905045006 | 57 | 152 | 0.0 | 0.0 | 0.00 | 0.00 | 0.00 | 86 | 997.6 |
| 20260905043006 | 57 | 152 | 0.0 | 0.0 | 0.00 | 0.00 | 0.00 | 87 | 997.6 |
| 20260905042008 | 57 | 152 | 0.0 | 0.0 | 0.00 | 0.00 | 0.00 | 87 | 997.6 |
| 20260905040007 | 57 | 152 | 0.0 | 0.0 | 0.00 | 0.00 | 0.00 | 86 | 997.6 |
| 20260905035006 | 57 | 152 | 0.0 | 0.0 | 0.00 | 0.00 | 0.00 | 85 | 997.6 |
| 20260905034005 | 58 | 152 | 0.0 | 0.0 | 0.00 | 0.00 | 0.00 | 85 | 997.6 |
| 20260905033006 | 58 | 152 | 0.0 | 0.0 | 0.00 | 0.00 | 0.00 | 82 | 997.5 |
| 20260905031007 | 58 | 152 | 0.0 | 0.0 | 0.00 | 0.00 | 0.00 | 83 | 997.6 |
| 20260905025006 | 58 | 158 | 0.0 | 2.0 | 0.00 | 0.00 | 0.00 | 83 | 997.6 |
| 20260905024007 | 58 | 155 | 0.0 | 0.0 | 0.00 | 0.00 | 0.00 | 84 | 997.6 |
| 20260905021005 | 60 | 152 | 1.0 | 1.0 | 0.00 | 0.00 | 0.00 | 80 | 997.6 |
| 20260905020006 | 60 | 152 | 0.0 | 1.0 | 0.00 | 0.00 | 0.00 | 80 | 997.6 |
| 20260905015006 | 61 | 152 | 0.0 | 1.0 | 0.00 | 0.00 | 0.00 | 78 | 997.6 |